[[{"header":{"parameterUnit":"m.s-1","parameterCategory":1,"la1":30.2991,"la2":30.254,"lo1":-89.0895,"lo2":-89.0444,"dy":0.0017,"dx":0.0017,"nx":28,"ny":28,"refTime":"2025-04-26T09:00:00:Z","depth":0,"parameterNumber":2,"parameterNumberName":"U-component_of_WINDS"},"data":[0,0,0,0,0,0,0,0,0,0,0,0,0,0,0,0,0,0,0,0,0,0,0,0,0,0,0,0,0,0,0,0,0,0,0,0,0,0,0,0,0,0,0,0,0,0,0,0,0,0,0,0,0,0,0,0,0,0,0.2614,0.2615,0,0.2703,0.2704,0.2705,0.274,0.274,0.274,0.274,0.283,0.2833,0.2835,0,0,0,0,0,0,0,0,0,0,0,0,0,0.2472,0.2474,0.2614,0.2615,0.2616,0.2703,0.2705,0.2706,0.274,0.274,0.274,0.274,0.2829,0.2832,0.2836,0,0,0,0,0,0,0,0,0,0,0,0,0,0.2544,0.2475,0.2614,0.2644,0.2648,0.2703,0.2705,0.2706,0.274,0.274,0.274,0.2739,0.2828,0.2832,0.2836,0.2868,0,0,0.2848,0.285,0,0,0,0,0,0,0,0,0.254,0.255,0.2638,0.2642,0.2646,0.271,0.2688,0.276,0.2741,0.2705,0.274,0.2739,0.2791,0.2798,0.2815,0.2872,0.2876,0.2849,0.2851,0.2853,0.2854,0,0,0,0,0,0,0,0.2535,0.2546,0.2649,0.264,0.2644,0.2653,0.2663,0.2702,0.2749,0.2708,0.2711,0.2721,0.2793,0.2811,0.2818,0.2877,0.2848,0.2852,0.2854,0.2856,0.2964,0.2965,0,0,0,0,0,0,0.2525,0.2541,0.2646,0.2652,0.2591,0.2655,0.2667,0.269,0.2748,0.2757,0.2721,0.2722,0.2805,0.2813,0.2821,0.2862,0.2853,0.2856,0.2859,0.2964,0.2964,0.2965,0,0,0,0,0,0,0.2522,0.2534,0.2643,0.2598,0.2612,0.2658,0.2684,0.2692,0.2711,0.2758,0.2767,0.2732,0.2805,0.2815,0.2856,0.2865,0.2858,0.2862,0.2963,0.2964,0.2965,0.2943,0,0,0,0,0,0,0.2518,0.2533,0.2546,0.2598,0.2614,0.2677,0.2685,0.2694,0.2718,0.272,0.277,0.2778,0.2805,0.285,0.286,0.2871,0.2865,0.2962,0.2963,0.2964,0.2943,0.2943,0.2943,0,0,0,0,0,0.2513,0.2536,0.2546,0.2559,0.2631,0.2677,0.2687,0.2717,0.2718,0.2731,0.2762,0.2777,0.2863,0.2854,0.2865,0.2877,0.2962,0.2963,0.2964,0.2943,0.2943,0.2943,0,0,0,0,0,0,0.2484,0.2543,0.2555,0.2596,0.2631,0.2683,0.27,0.2716,0.2751,0.2752,0.2788,0.2799,0.2837,0.2861,0.285,0.2911,0.2913,0.2917,0.2893,0.2894,0.2894,0.2887,0.2868,0,0,0,0,0,0.2482,0.2515,0.2565,0.2596,0.2613,0.2653,0.2675,0.2695,0.2733,0.2748,0.2781,0.2817,0.2852,0.2874,0.2909,0.2947,0.2958,0.2961,0.2961,0.2961,0.2963,0.2985,0.2986,0.2969,0.2969,0.2969,0,0,0.2479,0.2515,0.2534,0.2591,0.2621,0.2653,0.2666,0.27,0.2724,0.2753,0.2793,0.2819,0.2861,0.29,0.2919,0.2922,0.2971,0.2962,0.2961,0.2964,0.2986,0.2988,0.2989,0.2969,0.2969,0.2969,0,0,0.249,0.2521,0.255,0.258,0.2625,0.2651,0.2658,0.2708,0.2726,0.2767,0.2789,0.2819,0.2878,0.2907,0.293,0.2952,0.2967,0.2962,0.2961,0.2982,0.2983,0.2985,0.2992,0.2995,0.2965,0.2964,0.2964,0,0.248,0.253,0.2563,0.2596,0.262,0.2648,0.2678,0.2705,0.2759,0.2775,0.2777,0.2852,0.2882,0.2929,0.2934,0.2952,0.296,0.2956,0.2981,0.2982,0.2984,0.2992,0.2995,0.2964,0.2964,0.2964,0.2964,0,0.2516,0.2551,0.2569,0.2621,0.2647,0.2678,0.2715,0.2738,0.2756,0.2782,0.2824,0.2861,0.2904,0.2916,0.2935,0.2965,0.2966,0.2974,0.2977,0.2984,0.2992,0.2995,0.2962,0.2963,0.2963,0.2963,0,0,0.2511,0.2581,0.2587,0.261,0.2662,0.2689,0.2721,0.2763,0.2782,0.2818,0.2846,0.2895,0.2903,0.2929,0.295,0.2968,0.2983,0.2975,0.2976,0.2975,0.3019,0.3012,0.3015,0.2993,0.2994,0.2995,0.3015,0,0.2529,0.2588,0.2618,0.2664,0.2696,0.2723,0.2751,0.2786,0.2811,0.2842,0.287,0.2904,0.2912,0.2928,0.2947,0.2977,0.2992,0.2976,0.3019,0.302,0.3007,0.3019,0.3013,0.303,0.3019,0.3019,0.302,0,0.2557,0.2593,0.2643,0.269,0.2705,0.273,0.2771,0.28,0.2839,0.2856,0.2885,0.2906,0.294,0.2941,0.2989,0.2977,0.2996,0.3014,0.3015,0.302,0.302,0.3024,0.3037,0.3039,0.3025,0.3024,0.3024,0,0.2548,0.2609,0.2647,0.2666,0.2723,0.2739,0.2764,0.2803,0.2826,0.2862,0.2877,0.2916,0.2938,0.2967,0.2998,0.2996,0.3043,0.3046,0.3058,0.3057,0.3067,0.3065,0.3082,0.3079,0.3079,0.3079,0.3079,0,0.2565,0.2594,0.2643,0.2666,0.2699,0.2734,0.2766,0.2792,0.2826,0.2855,0.288,0.2906,0.2946,0.2976,0.3001,0.3036,0.3046,0.306,0.3066,0.3058,0.3056,0.3071,0.307,0.308,0.308,0.3079,0.3079,0,0.256,0.2595,0.2637,0.2688,0.2701,0.2723,0.2766,0.2789,0.2816,0.2851,0.2861,0.2903,0.294,0.2974,0.3024,0.304,0.3076,0.3084,0.3063,0.3066,0.3076,0.3075,0.3103,0.3108,0.3101,0.3101,0.3101,0,0.2568,0.2591,0.2644,0.2665,0.2689,0.2722,0.2747,0.2781,0.2805,0.2852,0.2869,0.2908,0.2942,0.3,0.3034,0.3072,0.3081,0.3088,0.3087,0.3078,0.3081,0.3079,0.3082,0.3088,0.3088,0.3088,0.3088,0,0.2579,0.2595,0.2629,0.2669,0.2697,0.273,0.2764,0.2779,0.282,0.2846,0.2885,0.291,0.2961,0.3,0.3042,0.3066,0.3084,0.3088,0.3093,0.3084,0.3071,0.3078,0.3062,0.3087,0.3087,0.3087,0.3087,0.3087,0.2581,0.2603,0.2643,0.268,0.2709,0.274,0.2764,0.2794,0.2827,0.2872,0.289,0.2929,0.2968,0.3026,0.305,0.3081,0.3085,0.3091,0.3093,0.3094,0.3093,0.3066,0.3089,0.3089,0.3089,0.3089,0.3089,0,0.2593,0.262,0.2654,0.2701,0.273,0.2744,0.2782,0.2805,0.284,0.2874,0.2907,0.2951,0.2988,0.3026,0.3065,0.3083,0.3092,0.3092,0.3091,0.3096,0.3087,0.3079,0.3084,0.3084,0.3084,0.3084,0.3084,0.3084,0.2602,0.264,0.266,0.2712,0.274,0.2778,0.2799,0.2828,0.2855,0.2904,0.2935,0.296,0.2996,0.3038,0.3073,0.3083,0.3096,0.3094,0.3106,0.3097,0.3097,0.3097,0.309,0.3097,0.3097,0.3113,0.3113,0.3113]},{"header":{"parameterUnit":"m.s-1","parameterCategory":1,"la1":30.2991,"la2":30.254,"lo1":-89.0895,"lo2":-89.0444,"dy":0.0017,"dx":0.0017,"nx":28,"ny":28,"refTime":"2025-04-26T09:00:00:Z","depth":0,"parameterNumber":3,"parameterNumberName":"V-component_of_WINDS"},"data":[0,0,0,0,0,0,0,0,0,0,0,0,0,0,0,0,0,0,0,0,0,0,0,0,0,0,0,0,0,0,0,0,0,0,0,0,0,0,0,0,0,0,0,0,0,0,0,0,0,0,0,0,0,0,0,0,0,0,2.6139,2.6138,0,2.6092,2.6091,2.6091,2.6014,2.6012,2.6011,2.6009,2.5962,2.5962,2.5962,0,0,0,0,0,0,0,0,0,0,0,0,0,2.6162,2.6162,2.6139,2.6138,2.6138,2.6092,2.6091,2.6091,2.6014,2.6012,2.601,2.6009,2.5962,2.5962,2.5962,0,0,0,0,0,0,0,0,0,0,0,0,0,2.6137,2.6162,2.6139,2.6094,2.6089,2.6092,2.6091,2.609,2.6014,2.6012,2.601,2.6008,2.5962,2.5962,2.5962,2.6005,0,0,2.5962,2.5962,0,0,0,0,0,0,0,0,2.6139,2.6137,2.6101,2.6097,2.6092,2.6056,2.6082,2.6062,2.6015,2.6043,2.6009,2.6007,2.5995,2.5992,2.5988,2.6003,2.6001,2.5962,2.5962,2.5962,2.5962,0,0,0,0,0,0,0,2.6141,2.6138,2.612,2.61,2.6095,2.6076,2.607,2.6078,2.6031,2.604,2.6034,2.603,2.5992,2.5988,2.5986,2.6,2.5962,2.5962,2.5962,2.5962,2.6048,2.605,0,0,0,0,0,0,2.6149,2.614,2.6122,2.6119,2.6111,2.6077,2.6071,2.607,2.6031,2.6023,2.6032,2.6026,2.5989,2.5986,2.5984,2.6032,2.5962,2.5962,2.5962,2.6045,2.6048,2.605,0,0,0,0,0,0,2.615,2.6148,2.6123,2.6128,2.6123,2.6079,2.6079,2.607,2.6066,2.6025,2.6016,2.6036,2.5987,2.5984,2.6,2.6029,2.5962,2.5962,2.6043,2.6046,2.6049,2.6128,0,0,0,0,0,0,2.6151,2.6149,2.6165,2.6129,2.6123,2.614,2.6081,2.6071,2.6066,2.6059,2.6027,2.6019,2.5985,2.6001,2.6,2.6028,2.5962,2.604,2.6044,2.6048,2.6122,2.6133,2.6143,0,0,0,0,0,2.6152,2.6189,2.6166,2.6164,2.6142,2.6142,2.6139,2.6099,2.6069,2.6085,2.6058,2.602,2.6026,2.6003,2.6002,2.603,2.6038,2.6043,2.6048,2.6118,2.6131,2.6143,0,0,0,0,0,0,2.6229,2.6183,2.6157,2.6184,2.6167,2.6129,2.6147,2.6115,2.6107,2.61,2.6051,2.6045,2.6067,2.605,2.6025,2.607,2.6026,2.6031,2.608,2.6092,2.6102,2.6105,2.5962,0,0,0,0,0,2.6249,2.6253,2.6213,2.624,2.6233,2.6192,2.6191,2.6161,2.6143,2.6135,2.611,2.6093,2.6091,2.6091,2.6087,2.612,2.6112,2.6139,2.6149,2.6158,2.6162,2.6178,2.619,2.6067,2.6067,2.6067,0,0,2.6291,2.6266,2.6272,2.6255,2.6239,2.6244,2.6187,2.6194,2.6198,2.6136,2.615,2.6131,2.6109,2.6134,2.6144,2.6121,2.6195,2.6164,2.6171,2.6171,2.6185,2.6196,2.6207,2.607,2.607,2.6069,0,0,2.6369,2.6351,2.6371,2.6356,2.6333,2.6305,2.6311,2.6277,2.6262,2.6275,2.6229,2.6233,2.623,2.6216,2.6209,2.6283,2.6248,2.6283,2.6336,2.6352,2.6362,2.637,2.6396,2.6406,2.6288,2.6288,2.6288,0,2.6423,2.6429,2.6386,2.6396,2.639,2.6336,2.6356,2.6344,2.632,2.6317,2.6292,2.6288,2.627,2.629,2.6308,2.6305,2.6309,2.6286,2.6364,2.6372,2.6379,2.6403,2.6413,2.6293,2.6292,2.6292,2.6291,0,2.6497,2.6502,2.6521,2.65,2.6496,2.6512,2.6471,2.6472,2.6444,2.6419,2.6433,2.6409,2.6399,2.6402,2.6374,2.6419,2.6405,2.6373,2.6328,2.6396,2.6418,2.6426,2.6299,2.6297,2.6296,2.6295,0,0,2.6621,2.6576,2.6584,2.6574,2.6544,2.6547,2.656,2.655,2.6552,2.6539,2.6548,2.6548,2.6518,2.651,2.648,2.6494,2.6553,2.646,2.6458,2.6477,2.6601,2.6625,2.6636,2.653,2.6532,2.6533,2.6602,0,2.6693,2.6712,2.6674,2.6703,2.6707,2.6655,2.6667,2.665,2.6627,2.6627,2.6602,2.6603,2.6563,2.6558,2.657,2.6544,2.6577,2.6538,2.6538,2.6539,2.6545,2.6647,2.6673,2.6739,2.6611,2.6612,2.6613,0,2.6778,2.6768,2.6798,2.6766,2.6766,2.6777,2.6765,2.6766,2.6746,2.6729,2.672,2.6685,2.6696,2.6654,2.6667,2.6642,2.664,2.6627,2.6629,2.6626,2.658,2.6647,2.6759,2.6769,2.6626,2.6625,2.6624,0,2.6865,2.686,2.6876,2.6869,2.6833,2.6842,2.6828,2.6805,2.6802,2.6792,2.6789,2.678,2.6775,2.6769,2.6733,2.6706,2.6751,2.6706,2.6737,2.6738,2.6748,2.6748,2.6861,2.6748,2.6748,2.6748,2.6748,0,2.6948,2.6968,2.6915,2.6925,2.6946,2.6902,2.6924,2.6904,2.6885,2.6891,2.6846,2.6852,2.6804,2.6805,2.6776,2.6792,2.679,2.6776,2.6768,2.678,2.6782,2.6777,2.6771,2.6751,2.675,2.675,2.6749,0,2.7049,2.7014,2.7028,2.6994,2.6985,2.7002,2.6972,2.698,2.6955,2.6962,2.6962,2.6922,2.6921,2.6884,2.6876,2.6856,2.6884,2.6868,2.689,2.6885,2.6918,2.6915,2.7031,2.7044,2.6925,2.6926,2.6927,0,2.7104,2.7118,2.7084,2.7085,2.7072,2.7074,2.707,2.7028,2.7026,2.7005,2.7015,2.701,2.7004,2.7005,2.6975,2.6968,2.6951,2.6992,2.695,2.6961,2.6951,2.695,2.6951,2.7001,2.7003,2.7004,2.7005,0,2.7205,2.7187,2.7183,2.7174,2.7171,2.7161,2.7149,2.7152,2.7106,2.7106,2.7104,2.71,2.7091,2.7086,2.7074,2.7059,2.7024,2.7019,2.7025,2.7037,2.7049,2.7042,2.6914,2.7016,2.7015,2.7014,2.7013,2.7013,2.7283,2.7293,2.7271,2.7269,2.7255,2.7245,2.7251,2.7227,2.7224,2.7214,2.7189,2.7191,2.7171,2.7151,2.7139,2.714,2.7119,2.7129,2.7131,2.7134,2.714,2.705,2.7138,2.7137,2.7137,2.7137,2.7136,0,2.7381,2.7365,2.7363,2.7347,2.7346,2.7314,2.7299,2.7299,2.7302,2.7286,2.7281,2.7279,2.7274,2.7245,2.7237,2.7244,2.7228,2.7243,2.7242,2.7239,2.716,2.7154,2.7256,2.7256,2.7256,2.7256,2.7256,2.7256,2.7432,2.7447,2.7427,2.7435,2.7418,2.742,2.7414,2.7404,2.7391,2.7391,2.7387,2.7368,2.7347,2.7337,2.7332,2.7323,2.7322,2.7343,2.7329,2.7256,2.7244,2.7233,2.7228,2.7343,2.7343,2.7407,2.7408,2.7409]}]]